Location: Newark
(21.8258°S, 114.1586°E)
Time: 02:31:37
(UTC+00:00)

Hubble Space Telescope - Pass Details

Date: 16 December 2019
Orbit: 536 x 540 km, 28.5° (Epoch: 23 January)

Event Time Altitude Azimuth Distance (km) Brightness Sun altitude
Rises 13:49:08 0° 250° (WSW) 2,685 5.2 -32.0°
Reaches altitude 10° 13:51:24 10° 250° (WSW) 1,792 4.1 -32.3°
Enters shadow 13:52:26 17° 250° (WSW) 1,396 3.4 -32.5°
